RYE05 KEWR-KDTW

Flight info

Callsign RYE05
Flight time 1h 28m
Altitude 40000
Route GAYEL J95 CFB TRAAD JACCI FERRL2
Aircraft BBJ2/M-SDE2E3FGHIRWXY/LB1

Departure

Time 2026-05-06 06:31
Airport Newark Liberty International Airport (KEWR)

Arrival

Time 2026-05-06 08:00
Airport Detroit Metropolitan Wayne County Airport (KDTW)
Time Latitude Longitude Altitude Speed Heading
2026-05-06 06:09 40.70407 -74.16736 21 ft 0 kts 74°
2026-05-06 06:28 40.70406 -74.16694 23 ft 10 kts 103°
2026-05-06 06:28 40.70354 -74.16644 21 ft 11 kts 204°
2026-05-06 06:28 40.70289 -74.16638 21 ft 10 kts 123°
2026-05-06 06:28 40.70293 -74.16537 18 ft 12 kts 92°
2026-05-06 06:29 40.70283 -74.16427 18 ft 12 kts 97°
2026-05-06 06:29 40.70305 -74.16308 18 ft 15 kts 51°
2026-05-06 06:29 40.70292 -74.16198 19 ft 15 kts 161°
2026-05-06 06:29 40.70208 -74.16258 17 ft 14 kts 198°
2026-05-06 06:30 40.70143 -74.16294 16 ft 0 kts 206°
2026-05-06 06:30 40.70142 -74.16295 16 ft 3 kts 206°
2026-05-06 06:30 40.69936 -74.16427 14 ft 73 kts 206°
2026-05-06 06:30 40.69257 -74.16861 21 ft 142 kts 206°
2026-05-06 06:31 40.68309 -74.17492 589 ft 154 kts 207°
2026-05-06 06:31 40.67358 -74.18128 1513 ft 151 kts 206°
2026-05-06 06:31 40.66386 -74.18757 2119 ft 168 kts 206°
2026-05-06 06:31 40.65247 -74.19491 2436 ft 194 kts 207°
2026-05-06 06:32 40.63945 -74.20303 2676 ft 220 kts 206°
2026-05-06 06:32 40.62521 -74.21180 3313 ft 228 kts 206°
2026-05-06 06:32 40.61166 -74.22221 4226 ft 228 kts 223°
2026-05-06 06:32 40.60357 -74.24023 5041 ft 236 kts 252°
2026-05-06 06:33 40.60368 -74.26230 5818 ft 252 kts 279°
2026-05-06 06:33 40.60988 -74.28415 6701 ft 258 kts 287°
2026-05-06 06:33 40.61777 -74.30562 7563 ft 264 kts 293°
2026-05-06 06:33 40.63018 -74.32426 8369 ft 283 kts 318°
2026-05-06 06:34 40.64879 -74.33456 9200 ft 302 kts 344°
2026-05-06 06:34 40.67027 -74.33475 10036 ft 314 kts 359°
2026-05-06 06:34 40.69249 -74.33273 10598 ft 331 kts 359°
2026-05-06 06:34 40.71643 -74.33077 10793 ft 358 kts 359°
2026-05-06 06:35 40.74191 -74.32886 11199 ft 373 kts 359°
2026-05-06 06:35 40.76804 -74.32698 11916 ft 379 kts 359°
2026-05-06 06:35 40.79444 -74.32510 12724 ft 382 kts 359°
2026-05-06 06:35 40.82119 -74.32323 13559 ft 386 kts 359°
2026-05-06 06:36 40.84810 -74.32134 14375 ft 390 kts 359°
2026-05-06 06:36 40.87542 -74.31943 15153 ft 395 kts 359°
2026-05-06 06:36 40.90308 -74.31751 15939 ft 400 kts 358°
2026-05-06 06:36 40.93100 -74.31562 16695 ft 404 kts 358°
2026-05-06 06:37 40.95927 -74.31340 17422 ft 412 kts
2026-05-06 06:37 40.98755 -74.30481 18107 ft 421 kts 12°
2026-05-06 06:37 41.01572 -74.29324 18801 ft 425 kts 12°
2026-05-06 06:37 41.04451 -74.28487 19448 ft 423 kts
2026-05-06 06:38 41.07385 -74.28237 20091 ft 422 kts 354°
2026-05-06 06:38 41.10314 -74.28464 20779 ft 421 kts 348°
2026-05-06 06:38 41.13209 -74.28997 21424 ft 421 kts 345°
2026-05-06 06:38 41.16065 -74.29672 22049 ft 423 kts 343°
2026-05-06 06:39 41.18966 -74.30410 22637 ft 426 kts 343°
2026-05-06 06:39 41.21923 -74.31162 23212 ft 429 kts 343°
2026-05-06 06:39 41.24824 -74.31883 23758 ft 432 kts 343°
2026-05-06 06:39 41.27792 -74.32605 24303 ft 435 kts 344°
2026-05-06 06:40 41.30777 -74.33320 24837 ft 436 kts 344°
2026-05-06 06:40 41.33776 -74.34040 25314 ft 440 kts 344°
2026-05-06 06:40 41.36784 -74.34786 25815 ft 440 kts 340°
2026-05-06 06:40 41.39583 -74.36286 26237 ft 429 kts 322°
2026-05-06 06:41 41.41864 -74.38749 26724 ft 419 kts 307°
2026-05-06 06:41 41.43531 -74.41873 27172 ft 412 kts 295°
2026-05-06 06:41 41.44917 -74.45235 27583 ft 414 kts 294°
2026-05-06 06:41 41.46306 -74.48618 27965 ft 418 kts 295°
2026-05-06 06:42 41.47733 -74.51998 28384 ft 419 kts 295°
2026-05-06 06:42 41.49187 -74.55386 28776 ft 421 kts 296°
2026-05-06 06:42 41.50647 -74.58779 29160 ft 423 kts 296°
2026-05-06 06:42 41.52113 -74.62190 29510 ft 425 kts 296°
2026-05-06 06:43 41.53586 -74.65623 29856 ft 427 kts 296°
2026-05-06 06:43 41.55064 -74.69075 30220 ft 428 kts 296°
2026-05-06 06:43 41.56536 -74.72516 30671 ft 427 kts 296°
2026-05-06 06:43 41.58004 -74.75950 31199 ft 423 kts 296°
2026-05-06 06:44 41.59451 -74.79341 31756 ft 419 kts 296°
2026-05-06 06:44 41.60888 -74.82705 32292 ft 415 kts 296°
2026-05-06 06:44 41.62314 -74.86039 32773 ft 412 kts 296°
2026-05-06 06:44 41.63732 -74.89352 33223 ft 409 kts 296°
2026-05-06 06:45 41.65138 -74.92644 33681 ft 406 kts 296°
2026-05-06 06:45 41.66535 -74.95915 34185 ft 402 kts 297°
2026-05-06 06:45 41.67911 -74.99142 34638 ft 399 kts 297°
2026-05-06 06:45 41.69262 -75.02317 35051 ft 396 kts 297°
2026-05-06 06:46 41.70620 -75.05509 35476 ft 393 kts 297°
2026-05-06 06:46 41.71966 -75.08679 35863 ft 391 kts 297°
2026-05-06 06:46 41.73303 -75.11829 36294 ft 387 kts 297°
2026-05-06 06:46 41.74628 -75.14955 36634 ft 386 kts 297°
2026-05-06 06:47 41.75952 -75.18084 36981 ft 384 kts 297°
2026-05-06 06:47 41.77249 -75.21156 37590 ft 374 kts 297°
2026-05-06 06:47 41.78517 -75.24154 38114 ft 368 kts 297°
2026-05-06 06:47 41.79777 -75.27139 38338 ft 368 kts 297°
2026-05-06 06:48 41.81040 -75.30135 38505 ft 370 kts 297°
2026-05-06 06:48 41.82303 -75.33138 38747 ft 369 kts 297°
2026-05-06 06:48 41.83561 -75.36128 39033 ft 367 kts 297°
2026-05-06 06:48 41.84816 -75.39114 39253 ft 367 kts 297°
2026-05-06 06:49 41.86070 -75.42100 39401 ft 368 kts 297°
2026-05-06 06:49 41.87327 -75.45098 39520 ft 370 kts 297°
2026-05-06 06:49 41.88590 -75.48113 39725 ft 370 kts 297°
2026-05-06 06:49 41.89851 -75.51125 39866 ft 371 kts 297°
2026-05-06 06:50 41.91122 -75.54164 39866 ft 374 kts 297°
2026-05-06 06:50 41.93672 -75.60266 39869 ft 373 kts 297°
2026-05-06 06:51 41.96198 -75.66325 39868 ft 370 kts 297°
2026-05-06 06:51 41.98695 -75.72337 39870 ft 367 kts 297°
2026-05-06 06:52 42.01179 -75.78330 39872 ft 366 kts 296°
2026-05-06 06:52 42.03632 -75.84258 39870 ft 365 kts 296°
2026-05-06 06:53 42.06114 -75.90269 39863 ft 365 kts 296°
2026-05-06 06:53 42.08566 -75.96219 39865 ft 366 kts 296°
2026-05-06 06:54 42.11036 -76.02227 39864 ft 367 kts 296°
2026-05-06 06:54 42.13513 -76.08258 39865 ft 369 kts 296°
2026-05-06 06:55 42.15497 -76.14599 39865 ft 368 kts 285°
2026-05-06 06:55 42.16357 -76.21409 39867 ft 370 kts 277°
2026-05-06 06:56 42.16787 -76.27159 39863 ft 371 kts 277°
2026-05-06 06:56 42.17297 -76.34087 39860 ft 372 kts 277°
2026-05-06 06:57 42.17815 -76.41017 39863 ft 372 kts 277°
2026-05-06 06:57 42.18335 -76.47958 39861 ft 371 kts 277°
2026-05-06 06:58 42.18855 -76.54885 39859 ft 371 kts 277°
2026-05-06 06:58 42.19369 -76.61795 39859 ft 370 kts 277°
2026-05-06 06:59 42.19876 -76.68679 39871 ft 368 kts 277°
2026-05-06 06:59 42.20378 -76.75546 39871 ft 367 kts 276°
2026-05-06 07:00 42.20877 -76.82399 39870 ft 366 kts 276°
2026-05-06 07:00 42.21365 -76.89189 39877 ft 365 kts 276°
2026-05-06 07:01 42.21851 -76.95994 39874 ft 364 kts 276°
2026-05-06 07:01 42.22332 -77.02778 39876 ft 363 kts 276°
2026-05-06 07:02 42.22805 -77.09539 39868 ft 362 kts 276°
2026-05-06 07:02 42.23276 -77.16297 39856 ft 361 kts 276°
2026-05-06 07:03 42.23742 -77.23046 39857 ft 361 kts 276°
2026-05-06 07:03 42.24203 -77.29786 39863 ft 361 kts 276°
2026-05-06 07:04 42.24659 -77.36523 39847 ft 361 kts 276°
2026-05-06 07:04 42.25111 -77.43271 39855 ft 361 kts 276°
2026-05-06 07:05 42.25563 -77.50020 39841 ft 362 kts 276°
2026-05-06 07:05 42.26486 -77.56684 39844 ft 361 kts 283°
2026-05-06 07:06 42.27702 -77.63269 39822 ft 362 kts 283°
2026-05-06 07:06 42.28907 -77.69853 39830 ft 361 kts 283°
2026-05-06 07:07 42.30100 -77.76440 39835 ft 361 kts 283°
2026-05-06 07:07 42.31284 -77.83022 39836 ft 360 kts 283°
2026-05-06 07:08 42.32459 -77.89600 39832 ft 359 kts 283°
2026-05-06 07:08 42.33623 -77.96157 39834 ft 359 kts 283°
2026-05-06 07:09 42.34778 -78.02668 39841 ft 358 kts 283°
2026-05-06 07:09 42.35938 -78.09217 39831 ft 357 kts 282°
2026-05-06 07:10 42.37086 -78.15748 39838 ft 357 kts 283°
2026-05-06 07:10 42.38246 -78.22319 39841 ft 357 kts 283°
2026-05-06 07:11 42.39379 -78.28813 39836 ft 358 kts 282°
2026-05-06 07:11 42.40522 -78.35370 39834 ft 358 kts 282°
2026-05-06 07:12 42.41663 -78.41936 39830 ft 358 kts 282°
2026-05-06 07:12 42.42798 -78.48513 39832 ft 359 kts 282°
2026-05-06 07:13 42.43932 -78.55096 39828 ft 359 kts 282°
2026-05-06 07:13 42.45062 -78.61672 39843 ft 359 kts 282°
2026-05-06 07:14 42.46191 -78.68251 39822 ft 359 kts 282°
2026-05-06 07:14 42.47053 -78.74891 39836 ft 358 kts 273°
2026-05-06 07:15 42.47115 -78.81632 39836 ft 358 kts 271°
2026-05-06 07:15 42.47159 -78.88386 39838 ft 359 kts 271°
2026-05-06 07:16 42.47212 -78.95166 39842 ft 360 kts 271°
2026-05-06 07:16 42.47261 -79.01926 39838 ft 359 kts 271°
2026-05-06 07:17 42.47308 -79.08672 39841 ft 358 kts 271°
2026-05-06 07:17 42.47355 -79.15429 39853 ft 358 kts 271°
2026-05-06 07:18 42.47397 -79.22179 39854 ft 358 kts 271°
2026-05-06 07:18 42.47436 -79.28932 39850 ft 359 kts 271°
2026-05-06 07:19 42.47471 -79.35681 39850 ft 358 kts 271°
2026-05-06 07:19 42.47501 -79.42431 39849 ft 358 kts 271°
2026-05-06 07:20 42.47528 -79.49167 39851 ft 357 kts 271°
2026-05-06 07:20 42.47551 -79.55894 39851 ft 357 kts 271°
2026-05-06 07:21 42.47570 -79.62609 39843 ft 356 kts 271°
2026-05-06 07:21 42.47585 -79.69315 39841 ft 356 kts 271°
2026-05-06 07:22 42.47596 -79.76011 39842 ft 355 kts 271°
2026-05-06 07:22 42.47601 -79.82659 39843 ft 355 kts 271°
2026-05-06 07:23 42.47605 -79.89389 39837 ft 355 kts 271°
2026-05-06 07:23 42.47605 -79.96074 39842 ft 355 kts 271°
2026-05-06 07:24 42.47600 -80.02709 39843 ft 355 kts 271°
2026-05-06 07:24 42.47592 -80.09403 39845 ft 355 kts 271°
2026-05-06 07:25 42.47579 -80.16089 39843 ft 355 kts 271°
2026-05-06 07:25 42.47563 -80.22777 39842 ft 355 kts 271°
2026-05-06 07:25 42.47554 -80.26146 39450 ft 361 kts 271°
2026-05-06 07:26 42.47544 -80.29545 38918 ft 360 kts 271°
2026-05-06 07:26 42.47532 -80.32897 38374 ft 356 kts 271°
2026-05-06 07:26 42.47519 -80.36232 37822 ft 353 kts 271°
2026-05-06 07:26 42.47505 -80.39539 37393 ft 348 kts 270°
2026-05-06 07:27 42.47490 -80.42793 36946 ft 343 kts 270°
2026-05-06 07:27 42.47475 -80.45995 36525 ft 337 kts 270°
2026-05-06 07:27 42.47475 -80.49154 36101 ft 332 kts 270°
2026-05-06 07:27 42.47460 -80.52265 35666 ft 328 kts 269°
2026-05-06 07:28 42.47440 -80.55344 35242 ft 325 kts 269°
2026-05-06 07:28 42.47420 -80.58398 34815 ft 323 kts 269°
2026-05-06 07:28 42.47378 -80.64439 33992 ft 318 kts 268°
2026-05-06 07:29 42.47357 -80.67419 33588 ft 315 kts 268°
2026-05-06 07:29 42.47337 -80.70351 33061 ft 317 kts 268°
2026-05-06 07:29 42.47316 -80.73292 32756 ft 311 kts 267°
2026-05-06 07:29 42.47293 -80.76253 32372 ft 309 kts 267°
2026-05-06 07:30 42.47272 -80.79120 31974 ft 307 kts 266°
2026-05-06 07:30 42.47250 -80.82002 31585 ft 305 kts 266°
2026-05-06 07:30 42.47227 -80.84865 31195 ft 303 kts 266°
2026-05-06 07:30 42.47204 -80.87713 30809 ft 302 kts 265°
2026-05-06 07:31 42.47180 -80.90549 30423 ft 300 kts 265°
2026-05-06 07:31 42.47155 -80.93373 30047 ft 302 kts 264°
2026-05-06 07:31 42.47126 -80.96262 29668 ft 313 kts 264°
2026-05-06 07:31 42.47095 -80.99254 29248 ft 320 kts 264°
2026-05-06 07:32 42.47067 -81.02260 28808 ft 318 kts 264°
2026-05-06 07:32 42.47039 -81.05239 28378 ft 315 kts 264°
2026-05-06 07:32 42.47011 -81.08194 27954 ft 312 kts 264°
2026-05-06 07:32 42.46982 -81.11122 27534 ft 310 kts 264°
2026-05-06 07:33 42.46953 -81.14028 27121 ft 307 kts 264°
2026-05-06 07:33 42.46922 -81.16913 26709 ft 305 kts 264°
2026-05-06 07:33 42.46891 -81.19771 26303 ft 303 kts 264°
2026-05-06 07:33 42.46860 -81.22609 25894 ft 301 kts 264°
2026-05-06 07:34 42.46828 -81.25434 25497 ft 299 kts 264°
2026-05-06 07:34 42.46795 -81.28228 25100 ft 297 kts 264°
2026-05-06 07:34 42.46759 -81.31013 24709 ft 294 kts 264°
2026-05-06 07:34 42.46726 -81.33771 24311 ft 292 kts 264°
2026-05-06 07:35 42.46691 -81.36513 23932 ft 290 kts 264°
2026-05-06 07:35 42.46656 -81.39239 23546 ft 289 kts 264°
2026-05-06 07:35 42.46621 -81.41948 23164 ft 287 kts 264°
2026-05-06 07:35 42.46586 -81.44641 22781 ft 285 kts 264°
2026-05-06 07:36 42.46550 -81.47315 22411 ft 283 kts 264°
2026-05-06 07:36 42.46513 -81.49972 22031 ft 282 kts 264°
2026-05-06 07:36 42.46477 -81.52612 21657 ft 280 kts 264°
2026-05-06 07:36 42.46440 -81.55212 21293 ft 279 kts 265°
2026-05-06 07:37 42.46401 -81.57868 20926 ft 277 kts 265°
2026-05-06 07:37 42.46364 -81.60437 20573 ft 276 kts 265°
2026-05-06 07:37 42.46326 -81.63026 20199 ft 274 kts 265°
2026-05-06 07:37 42.46287 -81.65603 19838 ft 273 kts 265°
2026-05-06 07:38 42.46247 -81.68169 19479 ft 272 kts 265°
2026-05-06 07:38 42.46208 -81.70718 19122 ft 271 kts 265°
2026-05-06 07:38 42.46168 -81.73265 18767 ft 270 kts 265°
2026-05-06 07:38 42.46127 -81.75800 18410 ft 268 kts 266°
2026-05-06 07:39 42.46087 -81.78317 18057 ft 267 kts 266°
2026-05-06 07:39 42.46046 -81.80827 17708 ft 266 kts 266°
2026-05-06 07:39 42.46004 -81.83316 17360 ft 265 kts 266°
2026-05-06 07:39 42.45962 -81.85806 17015 ft 263 kts 265°
2026-05-06 07:40 42.45921 -81.88280 16669 ft 262 kts 265°
2026-05-06 07:40 42.45878 -81.90742 16325 ft 262 kts 265°
2026-05-06 07:40 42.45835 -81.93201 15982 ft 260 kts 265°
2026-05-06 07:40 42.45792 -81.95646 15642 ft 260 kts 265°
2026-05-06 07:41 42.45749 -81.98085 15302 ft 259 kts 265°
2026-05-06 07:41 42.45705 -82.00517 14962 ft 258 kts 265°
2026-05-06 07:41 42.45660 -82.02942 14626 ft 257 kts 265°
2026-05-06 07:41 42.45616 -82.05360 14290 ft 256 kts 265°
2026-05-06 07:42 42.45586 -82.06955 14061 ft 256 kts 264°
2026-05-06 07:42 42.45541 -82.09351 13789 ft 253 kts 264°
2026-05-06 07:42 42.45496 -82.11721 13498 ft 251 kts 264°
2026-05-06 07:42 42.45450 -82.14086 13186 ft 253 kts 264°
2026-05-06 07:43 42.45402 -82.16495 12863 ft 258 kts 264°
2026-05-06 07:43 42.45352 -82.18951 12532 ft 264 kts 264°
2026-05-06 07:43 42.45302 -82.21455 12184 ft 268 kts 264°
2026-05-06 07:43 42.45254 -82.23964 11821 ft 266 kts 264°
2026-05-06 07:44 42.45204 -82.26468 11467 ft 265 kts 264°
2026-05-06 07:44 42.45153 -82.28950 11163 ft 262 kts 264°
2026-05-06 07:44 42.45104 -82.31370 11049 ft 252 kts 264°
2026-05-06 07:44 42.45004 -82.33706 10859 ft 246 kts 259°
2026-05-06 07:45 42.44744 -82.36006 10660 ft 248 kts 257°
2026-05-06 07:45 42.44444 -82.38337 10473 ft 254 kts 257°
2026-05-06 07:45 42.44137 -82.40720 10261 ft 259 kts 258°
2026-05-06 07:45 42.43831 -82.43142 10041 ft 262 kts 258°
2026-05-06 07:46 42.43528 -82.45583 9822 ft 264 kts 258°
2026-05-06 07:46 42.43225 -82.48040 9597 ft 264 kts 258°
2026-05-06 07:46 42.42927 -82.50478 9385 ft 261 kts 259°
2026-05-06 07:46 42.42633 -82.52890 9162 ft 259 kts 259°
2026-05-06 07:47 42.42339 -82.55303 8961 ft 261 kts 259°
2026-05-06 07:47 42.42042 -82.57731 8741 ft 262 kts 259°
2026-05-06 07:47 42.41743 -82.60172 8526 ft 264 kts 259°
2026-05-06 07:47 42.41443 -82.62622 8309 ft 265 kts 259°
2026-05-06 07:48 42.41141 -82.65081 8091 ft 265 kts 259°
2026-05-06 07:48 42.40841 -82.67528 7868 ft 262 kts 259°
2026-05-06 07:48 42.40547 -82.69906 7655 ft 258 kts 259°
2026-05-06 07:48 42.40253 -82.72288 7445 ft 256 kts 260°
2026-05-06 07:49 42.39960 -82.74662 7239 ft 257 kts 260°
2026-05-06 07:49 42.39732 -82.77059 7017 ft 257 kts 271°
2026-05-06 07:49 42.40136 -82.79391 6884 ft 255 kts 292°
2026-05-06 07:49 42.40948 -82.81512 6751 ft 253 kts 298°
2026-05-06 07:50 42.41833 -82.83567 6615 ft 253 kts 299°
2026-05-06 07:50 42.42721 -82.85636 6470 ft 255 kts 298°
2026-05-06 07:50 42.43586 -82.87683 6338 ft 247 kts 298°
2026-05-06 07:50 42.44417 -82.89678 6202 ft 240 kts 298°
2026-05-06 07:51 42.45222 -82.91623 6070 ft 233 kts 298°
2026-05-06 07:51 42.45999 -82.93509 5987 ft 225 kts 298°
2026-05-06 07:51 42.46755 -82.95338 5988 ft 222 kts 298°
2026-05-06 07:51 42.47506 -82.97156 5987 ft 221 kts 298°
2026-05-06 07:52 42.48259 -82.98978 5984 ft 221 kts 298°
2026-05-06 07:52 42.48835 -83.00884 5971 ft 220 kts 277°
2026-05-06 07:52 42.48912 -83.02948 5986 ft 219 kts 273°
2026-05-06 07:52 42.48982 -83.04999 5985 ft 219 kts 273°
2026-05-06 07:53 42.49057 -83.07062 5981 ft 218 kts 273°
2026-05-06 07:53 42.48942 -83.09100 5970 ft 219 kts 251°
2026-05-06 07:53 42.48101 -83.10846 5864 ft 226 kts 230°
2026-05-06 07:53 42.47024 -83.12397 5685 ft 225 kts 228°
2026-05-06 07:54 42.45949 -83.13901 5549 ft 225 kts 227°
2026-05-06 07:54 42.44806 -83.15328 5345 ft 225 kts 216°
2026-05-06 07:54 42.43463 -83.16422 5144 ft 224 kts 212°
2026-05-06 07:54 42.42150 -83.17468 5100 ft 214 kts 212°
2026-05-06 07:55 42.40869 -83.18492 4877 ft 212 kts 212°
2026-05-06 07:55 42.39601 -83.19484 4593 ft 210 kts 210°
2026-05-06 07:55 42.38308 -83.20367 4322 ft 206 kts 208°
2026-05-06 07:55 42.37041 -83.21226 4057 ft 203 kts 208°
2026-05-06 07:56 42.35826 -83.22148 3786 ft 198 kts 216°
2026-05-06 07:56 42.34729 -83.23244 3520 ft 194 kts 223°
2026-05-06 07:56 42.33782 -83.24506 3269 ft 191 kts 221°
2026-05-06 07:56 42.32673 -83.25496 3028 ft 190 kts 211°
2026-05-06 07:57 42.31517 -83.26355 2776 ft 189 kts 210°
2026-05-06 07:57 42.30382 -83.27188 2507 ft 181 kts 210°
2026-05-06 07:57 42.29302 -83.27985 2301 ft 171 kts 210°
2026-05-06 07:57 42.28287 -83.28736 2063 ft 162 kts 210°
2026-05-06 07:58 42.27335 -83.29439 1886 ft 148 kts 210°
2026-05-06 07:58 42.26465 -83.30081 1675 ft 138 kts 210°
2026-05-06 07:58 42.25641 -83.30690 1491 ft 137 kts 210°
2026-05-06 07:58 42.24787 -83.31323 1308 ft 138 kts 210°
2026-05-06 07:59 42.23944 -83.31945 1125 ft 137 kts 209°
2026-05-06 07:59 42.23107 -83.32566 909 ft 137 kts 210°
2026-05-06 07:59 42.22262 -83.33192 725 ft 138 kts 210°
2026-05-06 07:59 42.21449 -83.33793 647 ft 126 kts 210°
2026-05-06 08:00 42.20932 -83.34176 646 ft 35 kts 208°
2026-05-06 08:00 42.20814 -83.34263 645 ft 18 kts 207°
2026-05-06 08:00 42.20703 -83.34346 645 ft 18 kts 213°
2026-05-06 08:00 42.20619 -83.34465 647 ft 17 kts 233°
2026-05-06 08:01 42.20578 -83.34603 648 ft 16 kts 295°
2026-05-06 08:01 42.20677 -83.34614 650 ft 16 kts 28°
2026-05-06 08:01 42.20771 -83.34545 649 ft 15 kts 28°
2026-05-06 08:01 42.20861 -83.34478 648 ft 14 kts 28°
2026-05-06 08:02 42.20947 -83.34415 648 ft 14 kts 28°
2026-05-06 08:02 42.20996 -83.34323 648 ft 13 kts 107°
2026-05-06 08:02 42.20950 -83.34208 646 ft 15 kts 120°
2026-05-06 08:02 42.20903 -83.34090 646 ft 14 kts 118°
2026-05-06 08:03 42.20878 -83.33974 648 ft 13 kts 60°
2026-05-06 08:03 42.20954 -83.33906 648 ft 13 kts 27°
2026-05-06 08:03 42.21033 -83.33851 648 ft 13 kts 27°
2026-05-06 08:03 42.21109 -83.33793 648 ft 12 kts 30°
2026-05-06 08:04 42.21183 -83.33737 649 ft 12 kts 28°
2026-05-06 08:04 42.21242 -83.33665 649 ft 12 kts 72°
2026-05-06 08:04 42.21250 -83.33557 650 ft 11 kts 89°
2026-05-06 08:04 42.21251 -83.33450 649 ft 11 kts 89°
2026-05-06 08:05 42.21264 -83.33351 649 ft 11 kts 96°
2026-05-06 08:05 42.21271 -83.33294 649 ft 3 kts 59°
2026-05-06 08:05 42.21297 -83.33266 649 ft 7 kts 34°
2026-05-06 08:05 42.21316 -83.33249 649 ft 1 kts 33°
2026-05-06 08:06 42.21322 -83.33244 649 ft 1 kts 32°
2026-05-06 08:06 42.21324 -83.33242 649 ft 0 kts 32°